CDT,Max TemperatureF,Mean TemperatureF,Min TemperatureF,Max Dew PointF,MeanDew PointF,Min DewpointF,Max Humidity, Mean Humidity, Min Humidity, Max Sea Level PressureIn, Mean Sea Level PressureIn, Min Sea Level PressureIn, Max VisibilityMiles, Mean VisibilityMiles, Min VisibilityMiles, Max Wind SpeedMPH, Mean Wind SpeedMPH, Max Gust SpeedMPH,PrecipitationIn, CloudCover, Events, WindDirDegrees
2013-10-1,83,71,59,63,60,56,93,70,47,29.96,29.91,29.87,10,10,4,13,8,17,0.00,1,,205
2013-10-2,85,71,56,62,57,50,93,66,39,30.06,29.99,29.92,10,10,6,23,6,30,0.29,3,,128
2013-10-3,81,74,66,70,66,61,93,80,67,29.94,29.88,29.80,10,8,2,20,6,26,0.16,5,Rain-Thunderstorm,188
2013-10-4,78,71,64,68,65,60,93,78,62,29.97,29.90,29.83,10,7,1,23,7,26,0.35,4,Rain-Thunderstorm,120
2013-10-5,75,62,48,70,62,40,93,77,60,29.88,29.84,29.79,10,10,8,21,8,28,0.03,4,,210
2013-10-6,54,49,43,43,40,36,86,70,54,29.83,29.79,29.75,10,10,10,16,8,20,T,5,,240
2013-10-7,73,58,42,47,44,40,100,68,35,30.09,29.95,29.82,10,10,8,20,7,24,0.00,2,,261
2013-10-8,78,60,42,49,44,40,100,65,29,30.17,30.12,30.08,10,10,10,15,4,20,0.00,0,,168
2013-10-9,74,59,44,49,44,40,93,61,29,30.20,30.15,30.10,10,10,10,13,3,17,0.00,0,,124
2013-10-10,76,59,41,54,48,39,93,68,43,30.15,30.08,30.00,10,10,7,13,4,17,0.00,0,,126
2013-10-11,77,64,50,57,53,49,93,67,40,30.02,29.94,29.86,10,9,5,21,9,29,0.00,1,,145
2013-10-12,71,57,42,57,46,35,84,56,28,30.22,30.01,29.88,10,10,6,18,9,24,0.00,2,,250
2013-10-13,67,51,35,40,35,27,92,57,22,30.43,30.36,30.23,10,10,10,12,2,16,0.00,0,,310
2013-10-14,66,49,31,43,36,30,96,68,39,30.40,30.27,30.04,10,10,10,20,8,23,0.00,0,,103
2013-10-15,68,59,50,59,49,39,90,68,45,30.02,29.87,29.80,10,8,4,23,12,29,0.09,6,Rain,214
2013-10-16,52,50,48,44,42,39,86,77,68,29.99,29.93,29.89,10,10,10,22,11,31,0.00,8,,267
2013-10-17,62,50,37,44,40,32,86,59,32,29.96,29.90,29.83,10,10,9,18,5,24,0.02,4,Rain,253
2013-10-18,50,44,38,41,36,35,92,74,56,30.01,29.96,29.86,10,10,10,21,10,25,0.00,7,,270
2013-10-19,56,46,35,37,33,30,85,62,38,29.95,29.87,29.81,10,10,10,28,8,36,0.00,5,,241
2013-10-20,63,50,37,44,39,32,92,68,43,29.86,29.81,29.72,10,10,10,20,6,25,T,6,,227
2013-10-21,50,39,28,40,29,20,78,56,34,30.03,29.97,29.85,10,10,10,23,10,31,0.00,4,,291
2013-10-22,38,32,25,36,31,23,96,87,78,30.03,29.97,29.90,10,6,0,13,6,17,0.46,7,Fog-Rain-Snow,49
2013-10-23,44,38,32,34,30,24,89,69,49,30.09,30.06,30.01,10,10,9,17,10,22,T,7,,284
2013-10-24,41,32,23,34,22,20,88,66,44,30.38,30.24,30.07,10,10,8,18,9,23,0.00,5,,303
2013-10-25,54,39,23,31,24,20,88,58,28,30.44,30.31,30.07,10,10,7,22,8,28,0.00,0,,230
2013-10-26,54,42,30,33,28,24,82,59,35,30.14,30.02,29.92,10,10,10,24,12,33,0.00,1,,274
2013-10-27,57,41,25,30,27,23,92,64,35,30.12,30.05,29.96,10,10,10,17,4,20,0.00,0,,213
2013-10-28,61,45,29,39,33,26,92,66,39,30.35,30.21,30.05,10,10,10,20,9,23,0.00,0,,72
2013-10-29,59,48,37,50,38,32,96,72,47,30.33,30.21,30.10,10,9,2,14,9,20,0.00,4,,99
2013-10-30,62,57,52,59,54,50,100,95,89,30.08,29.94,29.75,8,3,1,17,7,22,1.60,8,Rain-Thunderstorm,115
2013-10-31,64,54,44,61,52,39,100,92,83,29.70,29.50,29.36,10,8,2,18,11,25,0.23,8,Rain,250